Satellite-Ground Cal/Val Region Overpasses Predictions

Prediction of Satellite NPP Overpassing Cal/Val Region: PacNW

Region Location: (Latitude: 10.00, Longitude: 139.50) to (Latitude: 22.70, Longitude: 165.60).

Table of predicted overpasses for the next 14.0 days since TLE Epoch: 12/19/2020
Interval Starting Time Starting Location Ending Time Ending Location
1 12/19/2020 03:10:33 ( 10.04, 152.00) 12/19/2020 03:14:08 ( 22.67, 149.00)
2 12/19/2020 15:42:26 ( 22.67, 149.23) 12/19/2020 15:46:01 ( 10.05, 146.23)
3 12/20/2020 02:51:32 ( 10.05, 156.75) 12/20/2020 02:55:07 ( 22.68, 153.75)
4 12/20/2020 15:23:25 ( 22.66, 153.99) 12/20/2020 15:27:00 ( 10.04, 150.99)
5 12/21/2020 02:32:30 ( 10.00, 161.52) 12/21/2020 02:36:06 ( 22.68, 158.51)
6 12/21/2020 15:04:23 ( 22.65, 158.74) 12/21/2020 15:07:58 ( 10.03, 155.74)
7 12/22/2020 02:14:18 ( 12.95, 165.60) 12/22/2020 02:17:04 ( 22.69, 163.26)
8 12/22/2020 03:54:58 ( 10.02, 140.90) 12/22/2020 03:56:40 ( 16.01, 139.51)
9 12/22/2020 14:45:22 ( 22.65, 163.49) 12/22/2020 14:48:57 ( 10.02, 160.49)
10 12/23/2020 03:35:57 ( 10.03, 145.65) 12/23/2020 03:39:32 ( 22.65, 142.65)
11 12/23/2020 14:29:29 ( 11.54, 165.60) 12/23/2020 14:29:55 ( 10.01, 165.25)
12 12/23/2020 16:07:49 ( 22.69, 142.89) 12/23/2020 16:11:25 ( 10.01, 139.87)
13 12/24/2020 03:16:55 ( 10.04, 150.41) 12/24/2020 03:20:30 ( 22.66, 147.41)
14 12/24/2020 15:48:48 ( 22.68, 147.64) 12/24/2020 15:52:23 ( 10.06, 144.64)
15 12/25/2020 02:57:54 ( 10.05, 155.16) 12/25/2020 03:01:29 ( 22.67, 152.16)
16 12/25/2020 15:29:46 ( 22.67, 152.39) 12/25/2020 15:33:21 ( 10.05, 149.39)
17 12/26/2020 02:38:52 ( 10.06, 159.91) 12/26/2020 02:42:27 ( 22.68, 156.91)
18 12/26/2020 15:10:45 ( 22.66, 157.14) 12/26/2020 15:14:20 ( 10.04, 154.14)
19 12/27/2020 02:19:50 ( 10.01, 164.68) 12/27/2020 02:23:26 ( 22.69, 161.66)
20 12/27/2020 14:51:44 ( 22.65, 161.90) 12/27/2020 14:55:19 ( 10.03, 158.90)
21 12/28/2020 03:42:18 ( 10.03, 144.06) 12/28/2020 03:45:53 ( 22.65, 141.06)
22 12/28/2020 14:33:56 ( 18.29, 165.59) 12/28/2020 14:36:17 ( 10.01, 163.65)
23 12/28/2020 16:14:11 ( 22.69, 141.29) 12/28/2020 16:16:16 ( 15.35, 139.51)
24 12/29/2020 03:23:17 ( 10.04, 148.81) 12/29/2020 03:26:52 ( 22.67, 145.81)
25 12/29/2020 15:55:10 ( 22.68, 146.04) 12/29/2020 15:58:45 ( 10.06, 143.04)
26 12/30/2020 03:04:15 ( 10.05, 153.56) 12/30/2020 03:07:50 ( 22.68, 150.56)
27 12/30/2020 15:36:08 ( 22.66, 150.79) 12/30/2020 15:39:43 ( 10.04, 147.79)
28 12/31/2020 02:45:13 ( 10.01, 158.33) 12/31/2020 02:48:49 ( 22.69, 155.31)
29 12/31/2020 15:17:07 ( 22.65, 155.55) 12/31/2020 15:20:42 ( 10.03, 152.55)
30 01/01/2021 02:26:11 ( 10.02, 163.08) 01/01/2021 02:29:46 ( 22.65, 160.08)
